Simultaneous Nadir Overpasses (SNOs) Predictions

Prediction of SNOs between GOES-16 and LANDSAT-8 Satellite Orbit:

Table of predicted SNOs for the next 14.0 days since TLE Epoch: 11/23/2024
Index Date Time (GOES-16) GOES-16 Lat,Lon LANDSAT-8 Lat,Lon Distance(km) Time Diff (sec)
1 11/23/2024 14:54:28 -0.03, -75.22 -0.91, -70.99 480.65 80
2 11/24/2024 03:18:33 0.03, -75.19 -0.17, -76.19 112.89 80
3 11/26/2024 03:03:43 0.03, -75.22 0.46, -73.24 225.21 80
4 11/26/2024 15:27:39 -0.03, -75.26 0.62, -78.40 356.91 80
5 11/28/2024 15:15:28 -0.02, -75.28 0.00, -75.44 18.00 80
6 11/30/2024 15:00:37 -0.02, -75.31 -0.65, -72.49 321.45 80
7 12/01/2024 03:24:40 0.02, -75.28 -0.52, -77.67 271.47 80
8 12/03/2024 03:09:48 0.01, -75.31 0.12, -74.71 68.53 80
9 12/05/2024 02:57:36 0.00, -75.35 0.78, -71.75 409.01 80
10 12/05/2024 15:18:51 0.00, -75.39 0.33, -76.90 172.70 80
